User: anonymous   Login
Location: Unspecified
(0.0000°N, 0.0000°E)
Time: 23:58:31
(UTC+00:00)
Language:

STARLINK-11707 [DTC] - Orbit

View from above orbital plane
View from above orbital plane
View from above satellite
View from above satellite

Ground track
Ground track

The orbit is defined by the following mean orbital elements,

1 64328U          26145.10630870 +.00000000 +00000-0 +13484-2 0 00001
2 64328  42.9989 288.5167 0000470 353.2204   6.8658 15.70894121    04
Epoch (UTC): 25 May 2026 02:33:05
Eccentricity: 0.0000470
inclination: 42.9989°
perigee height: 356 km
apogee height: 357 km
right ascension of ascending node: 288.5167°
argument of perigee: 353.2204°
revolutions per day: 15.70894121
mean anomaly at epoch: 6.8658°

The dashed part of the orbit path shows where the satellite is in the earth's shadow,  

DLR